Location: Haliburton Scout Reserve
(45.0900°N, 78.3200°W)
Time: 20:23:51
(UTC-04:00)

AO-109 - Visible Passes

Search period start: 04 October 2023 00:00
Search period end: 14 October 2023 00:00
Orbit: 416 x 439 km, 60.7° (Epoch: 04 October)

Date Brightness Start Highest point End Pass type
(mag) Time Alt. Az. Time Alt. Az. Time Alt. Az.
09 Oct ? 06:10:06 10° N 06:11:05 11° NNE 06:12:04 10° NE visible
11 Oct ? 06:15:41 10° NNW 06:18:14 19° NNE 06:20:49 10° E visible
12 Oct ? 05:31:17 10° N 05:33:07 14° NNE 05:34:57 10° ENE visible
13 Oct ? 04:47:40 10° NNE 04:47:49 10° NNE 04:48:10 10° NNE visible
13 Oct ? 06:21:28 10° NNW 06:24:43 43° NE 06:28:00 10° ESE visible
